• In Uzbekistan
  • List of Countries
  • For 7 days
  • Water Temperature
  • Satellite Maps
  • Weather Map
  • Weather Widgets
  • user-avatar
    Login

    Hourly Weather Sherpur

    Today, 22 May, Wednesday

    Time Temperature Precipitation Wind Pressure Humidity
    00:00 +19°C° 0 mm 2 mps 611 mmHg 41%
    01:00 +18°C° 0 mm 2 mps 611 mmHg 44%
    02:00 +17°C° 0 mm 2 mps 610 mmHg 46%
    03:00 +18°C° 0 mm 1 mps 610 mmHg 48%
    04:00 +16°C° 0 mm 1 mps 610 mmHg 50%
    05:00 +16°C° 0 mm 1 mps 610 mmHg 52%
    06:00 +18°C° 0 mm 1 mps 610 mmHg 48%
    07:00 +18°C° 0 mm 2 mps 610 mmHg 43%
    08:00 +19°C° 0 mm 2 mps 611 mmHg 39%
    09:00 +20°C° 0 mm 2 mps 611 mmHg 37%
    10:00 +20°C° 0 mm 2 mps 611 mmHg 34%
    11:00 +21°C° 0 mm 2 mps 611 mmHg 31%
    12:00 +23°C° 0.1 mm 2 mps 611 mmHg 31%
    13:00 +23°C° 0.1 mm 2 mps 611 mmHg 31%
    14:00 +23°C° 0.1 mm 2 mps 611 mmHg 30%
    15:00 +23°C° 0.2 mm 2 mps 611 mmHg 31%
    16:00 +23°C° 0.2 mm 2 mps 611 mmHg 33%
    17:00 +21°C° 0.2 mm 3 mps 610 mmHg 34%
    18:00 +21°C° 0.3 mm 3 mps 610 mmHg 36%
    19:00 +20°C° 0.3 mm 3 mps 610 mmHg 38%
    20:00 +19°C° 0.3 mm 2 mps 610 mmHg 40%
    21:00 +18°C° 0.2 mm 2 mps 610 mmHg 42%
    22:00 +18°C° 0.2 mm 2 mps 610 mmHg 44%
    23:00 +17°C° 0.2 mm 2 mps 610 mmHg 45%

    Tomorrow, 23 May, Thursday

    Time Temperature Precipitation Wind Pressure Humidity
    00:00 +17°C° 0.2 mm 2 mps 609 mmHg 47%
    01:00 +16°C° 0.2 mm 2 mps 609 mmHg 48%
    02:00 +16°C° 0.2 mm 3 mps 608 mmHg 49%
    03:00 +15°C° 0.1 mm 2 mps 608 mmHg 50%
    04:00 +15°C° 0.1 mm 2 mps 608 mmHg 51%
    05:00 +15°C° 0.1 mm 1 mps 608 mmHg 53%
    06:00 +15°C° 0 mm 1 mps 608 mmHg 52%
    07:00 +15°C° 0 mm 2 mps 608 mmHg 50%
    08:00 +16°C° 0 mm 2 mps 608 mmHg 49%
    09:00 +16°C° 0.1 mm 2 mps 609 mmHg 50%
    10:00 +17°C° 0.1 mm 2 mps 609 mmHg 50%
    11:00 +17°C° 0.1 mm 2 mps 609 mmHg 51%
    12:00 +17°C° 0.3 mm 2 mps 609 mmHg 53%
    13:00 +17°C° 0.3 mm 2 mps 609 mmHg 56%
    14:00 +17°C° 0.3 mm 2 mps 608 mmHg 58%
    15:00 +17°C° 0.4 mm 2 mps 608 mmHg 60%
    16:00 +16°C° 0.4 mm 2 mps 608 mmHg 62%
    17:00 +16°C° 0.4 mm 2 mps 607 mmHg 65%
    18:00 +16°C° 0.1 mm 2 mps 607 mmHg 66%
    19:00 +15°C° 0.1 mm 2 mps 607 mmHg 68%
    20:00 +15°C° 0.1 mm 1 mps 607 mmHg 70%
    21:00 +15°C° 0 mm 1 mps 607 mmHg 71%
    22:00 +15°C° 0 mm 1 mps 607 mmHg 73%
    23:00 +15°C° 0 mm 1 mps 607 mmHg 74%

    Day after tomorrow, 24 May, Friday

    Time Temperature Precipitation Wind Pressure Humidity
    00:00 +14°C° 0 mm 1 mps 607 mmHg 77%
    01:00 +14°C° 0 mm 1 mps 607 mmHg 79%
    02:00 +13°C° 0 mm 1 mps 607 mmHg 81%
    03:00 +13°C° 0.1 mm 1 mps 607 mmHg 81%
    04:00 +13°C° 0.1 mm 1 mps 607 mmHg 82%
    05:00 +13°C° 0.1 mm 1 mps 607 mmHg 83%
    06:00 +13°C° 0.1 mm 1 mps 607 mmHg 75%
    07:00 +14°C° 0.1 mm 1 mps 608 mmHg 67%
    08:00 +15°C° 0.1 mm 1 mps 609 mmHg 59%
    09:00 +16°C° 0.1 mm 1 mps 609 mmHg 53%
    10:00 +19°C° 0.1 mm 1 mps 610 mmHg 48%
    11:00 +20°C° 0.1 mm 1 mps 610 mmHg 42%
    12:00 +21°C° 0.1 mm 1 mps 610 mmHg 39%
    13:00 +22°C° 0.1 mm 1 mps 610 mmHg 37%
    14:00 +23°C° 0.1 mm 1 mps 610 mmHg 34%
    15:00 +23°C° 0.1 mm 2 mps 610 mmHg 32%
    16:00 +22°C° 0.1 mm 3 mps 610 mmHg 31%
    17:00 +24°C° 0.1 mm 3 mps 610 mmHg 30%
    18:00 +22°C° 0.1 mm 3 mps 610 mmHg 33%
    19:00 +21°C° 0.1 mm 3 mps 611 mmHg 36%
    20:00 +20°C° 0.1 mm 2 mps 611 mmHg 39%
    21:00 +19°C° 0 mm 2 mps 611 mmHg 42%
    22:00 +19°C° 0 mm 1 mps 611 mmHg 44%
    23:00 +18°C° 0 mm 1 mps 611 mmHg 46%

    25 May, Saturday

    Time Temperature Precipitation Wind Pressure Humidity
    00:00 +18°C° 0 mm 1 mps 610 mmHg 47%
    01:00 +16°C° 0 mm 1 mps 610 mmHg 48%
    02:00 +16°C° 0 mm 1 mps 609 mmHg 48%
    03:00 +15°C° 0 mm 1 mps 609 mmHg 48%
    04:00 +15°C° 0 mm 1 mps 609 mmHg 47%
    05:00 +15°C° 0 mm 2 mps 609 mmHg 47%
    06:00 +16°C° 0 mm 2 mps 610 mmHg 42%
    07:00 +17°C° 0 mm 2 mps 610 mmHg 38%
    08:00 +19°C° 0 mm 2 mps 611 mmHg 33%
    09:00 +20°C° 0 mm 2 mps 611 mmHg 29%
    10:00 +23°C° 0 mm 2 mps 612 mmHg 26%
    11:00 +24°C° 0 mm 2 mps 612 mmHg 22%
    12:00 +25°C° 0 mm 2 mps 612 mmHg 21%
    13:00 +26°C° 0 mm 3 mps 612 mmHg 20%
    14:00 +26°C° 0 mm 3 mps 612 mmHg 19%
    15:00 +26°C° 0 mm 4 mps 611 mmHg 20%
    16:00 +26°C° 0 mm 5 mps 611 mmHg 21%
    17:00 +26°C° 0 mm 5 mps 611 mmHg 21%
    18:00 +23°C° 0.1 mm 5 mps 611 mmHg 24%
    19:00 +22°C° 0.1 mm 4 mps 611 mmHg 27%
    20:00 +20°C° 0.1 mm 4 mps 610 mmHg 29%
    21:00 +19°C° 0 mm 3 mps 610 mmHg 31%
    22:00 +19°C° 0 mm 3 mps 610 mmHg 33%
    23:00 +18°C° 0 mm 2 mps 611 mmHg 35%

    26 May, Sunday

    Time Temperature Precipitation Wind Pressure Humidity
    00:00 +17°C° 0 mm 2 mps 610 mmHg 36%
    01:00 +17°C° 0 mm 2 mps 610 mmHg 38%
    02:00 +16°C° 0 mm 2 mps 609 mmHg 39%
    03:00 +15°C° 0 mm 2 mps 609 mmHg 41%
    04:00 +15°C° 0 mm 2 mps 609 mmHg 42%
    05:00 +14°C° 0 mm 2 mps 609 mmHg 43%
    06:00 +15°C° 0 mm 2 mps 610 mmHg 39%
    07:00 +17°C° 0 mm 3 mps 610 mmHg 35%
    08:00 +18°C° 0 mm 3 mps 611 mmHg 31%
    09:00 +19°C° 0 mm 3 mps 611 mmHg 27%
    10:00 +20°C° 0 mm 3 mps 612 mmHg 24%
    11:00 +21°C° 0 mm 3 mps 612 mmHg 20%
    12:00 +22°C° 0 mm 3 mps 612 mmHg 18%
    13:00 +23°C° 0 mm 4 mps 612 mmHg 17%
    14:00 +25°C° 0 mm 4 mps 611 mmHg 15%
    15:00 +25°C° 0 mm 4 mps 611 mmHg 15%
    16:00 +25°C° 0 mm 5 mps 611 mmHg 15%
    17:00 +23°C° 0 mm 5 mps 611 mmHg 14%
    18:00 +22°C° 0 mm 5 mps 611 mmHg 17%
    19:00 +21°C° 0 mm 4 mps 611 mmHg 20%
    20:00 +19°C° 0 mm 4 mps 611 mmHg 22%
    21:00 +18°C° 0 mm 3 mps 611 mmHg 25%
    22:00 +17°C° 0 mm 3 mps 611 mmHg 28%
    23:00 +16°C° 0 mm 2 mps 611 mmHg 30%

    27 May, Monday

    Time Temperature Precipitation Wind Pressure Humidity
    00:00 +16°C° 0 mm 2 mps 610 mmHg 32%
    01:00 +15°C° 0 mm 2 mps 610 mmHg 33%
    02:00 +14°C° 0 mm 2 mps 610 mmHg 35%
    03:00 +14°C° 0 mm 2 mps 609 mmHg 35%
    04:00 +13°C° 0 mm 2 mps 609 mmHg 36%
    05:00 +13°C° 0 mm 2 mps 609 mmHg 36%
    06:00 +15°C° 0 mm 2 mps 610 mmHg 32%
    07:00 +16°C° 0 mm 1 mps 611 mmHg 28%
    08:00 +19°C° 0 mm 1 mps 611 mmHg 24%
    09:00 +20°C° 0 mm 1 mps 612 mmHg 21%
    10:00 +21°C° 0 mm 1 mps 612 mmHg 18%
    11:00 +23°C° 0 mm 1 mps 612 mmHg 15%
    12:00 +24°C° 0 mm 1 mps 612 mmHg 14%
    13:00 +25°C° 0 mm 2 mps 612 mmHg 13%
    14:00 +26°C° 0 mm 2 mps 612 mmHg 12%
    15:00 +26°C° 0 mm 2 mps 612 mmHg 12%
    16:00 +26°C° 0 mm 3 mps 612 mmHg 11%
    17:00 +26°C° 0 mm 3 mps 612 mmHg 11%
    18:00 +25°C° 0 mm 3 mps 612 mmHg 12%
    19:00 +22°C° 0 mm 3 mps 612 mmHg 13%
    20:00 +21°C° 0 mm 2 mps 612 mmHg 15%
    21:00 +20°C° 0 mm 2 mps 611 mmHg 17%
    22:00 +19°C° 0 mm 2 mps 611 mmHg 19%
    23:00 +19°C° 0 mm 1 mps 611 mmHg 21%
    Show more